GW5441 Weather Reports


time (UTC)temp
C
wind
direction
speed
KPH
gust
KPH
rain 1hr
cm
rain 24hr
cm
rain mn
cm
humidity
%
barometer
mb
20260503021542 12 0 0.0 4.8 0.00 0.00 0.00 71 1021.1
20260503021035 12 0 0.0 4.8 0.00 0.00 0.00 70 1021.1
20260503020535 12 338 0.0 4.8 0.00 0.00 0.00 70 1021.1
20260503020047 12 335 1.6 9.7 0.00 0.00 0.00 70 1021.0
20260503015535 12 271 1.6 9.7 0.00 0.00 0.00 70 1021.1
20260503015035 12 0 1.6 6.4 0.00 0.00 0.00 71 1021.3
20260503014553 12 27 1.6 4.8 0.00 0.00 0.00 72 1021.4
20260503014035 12 335 1.6 4.8 0.00 0.00 0.00 72 1021.4
20260503013537 12 350 1.6 4.8 0.00 0.00 0.00 72 1021.3
20260503013048 12 0 0.0 3.2 0.00 0.00 0.00 71 1021.4
20260503012538 12 0 0.0 4.8 0.00 0.00 0.00 71 1021.4
20260503012034 12 0 1.6 4.8 0.00 0.00 0.00 71 1021.4
20260503011548 12 355 3.2 4.8 0.00 0.00 0.00 71 1021.4
20260503011035 12 28 3.2 6.4 0.00 0.00 0.00 70 1021.5
20260503010535 12 98 3.2 6.4 0.00 0.00 0.00 70 1021.6
20260503010050 12 52 0.0 4.8 0.00 0.00 0.00 71 1021.6
20260503005536 12 324 0.0 4.8 0.00 0.00 0.00 70 1021.6
20260503005035 12 348 1.6 4.8 0.00 0.00 0.00 70 1021.6
20260503004555 12 352 3.2 4.8 0.00 0.00 0.00 70 1021.7
20260503004035 12 5 1.6 6.4 0.00 0.00 0.00 69 1021.7
20260503003535 12 325 3.2 6.4 0.00 0.00 0.00 69 1021.8
20260503003108 12 330 3.2 4.8 0.00 0.00 0.00 70 1021.7
20260503002537 13 355 1.6 4.8 0.00 0.00 0.00 70 1021.9
20260503002035 13 341 1.6 4.8 0.00 0.00 0.00 69 1021.8
20260503001550 13 290 0.0 4.8 0.00 0.00 0.00 69 1021.9
20260503001038 13 5 3.2 4.8 0.00 0.00 0.00 69 1022.0
20260503000535 13 25 1.6 4.8 0.00 0.00 0.00 69 1022.1
20260503000051 13 35 3.2 4.8 0.00 0.00 0.00 69 1022.1
20260502235535 13 321 0.0 4.8 0.00 0.00 0.00 69 1022.1
20260502235035 13 340 1.6 4.8 0.00 0.00 0.00 68 1022.3
20260502234600 13 0 1.6 4.8 0.00 0.00 0.00 69 1022.2
20260502234035 13 5 3.2 4.8 0.00 0.00 0.00 69 1022.3
20260502233536 13 0 1.6 4.8 0.00 0.00 0.00 70 1022.2
20260502233047 13 355 1.6 6.4 0.00 0.00 0.00 69 1022.3
20260502232535 13 35 3.2 6.4 0.00 0.00 0.00 70 1022.3
20260502232035 13 21 3.2 6.4 0.00 0.00 0.00 70 1022.3
20260502231547 13 15 3.2 6.4 0.00 0.00 0.00 69 1022.3
20260502231036 13 12 1.6 6.4 0.00 0.00 0.00 69 1022.3
20260502230536 13 355 3.2 6.4 0.00 0.00 0.00 69 1022.4
20260502230047 13 355 3.2 4.8 0.00 0.00 0.00 68 1022.3
20260502225538 13 5 3.2 4.8 0.00 0.00 0.00 68 1022.3
20260502225035 13 18 3.2 4.8 0.00 0.00 0.00 68 1022.3
20260502224552 13 11 1.6 6.4 0.00 0.00 0.00 67 1022.3
20260502224036 13 355 3.2 6.4 0.00 0.00 0.00 67 1022.2
20260502223535 14 14 3.2 6.4 0.00 0.00 0.00 67 1022.3
20260502223059 14 0 1.6 6.4 0.00 0.00 0.00 66 1022.2
20260502222535 14 355 3.2 6.4 0.00 0.00 0.00 66 1022.2
20260502222034 14 355 3.2 6.4 0.00 0.00 0.00 66 1022.2
20260502221546 14 355 1.6 6.4 0.00 0.00 0.00 64 1022.2
20260502221035 15 350 3.2 6.4 0.00 0.00 0.00 64 1022.2
20260502220535 15 344 1.6 6.4 0.00 0.00 0.00 64 1022.2
20260502220055 15 331 1.6 4.8 0.00 0.00 0.00 63 1022.1
20260502215535 15 355 3.2 4.8 0.00 0.00 0.00 63 1022.1
20260502215035 15 5 1.6 4.8 0.00 0.00 0.00 62 1022.1
20260502214604 15 19 1.6 4.8 0.00 0.00 0.00 60 1022.2
20260502214035 15 348 1.6 4.8 0.00 0.00 0.00 61 1022.1
20260502213538 15 13 1.6 6.4 0.00 0.00 0.00 60 1022.1
20260502213103 15 36 1.6 6.4 0.00 0.00 0.00 59 1022.1
20260502212535 15 338 1.6 6.4 0.00 0.00 0.00 60 1022.2
20260502212038 15 329 1.6 4.8 0.00 0.00 0.00 59 1022.1
20260502211554 15 360 1.6 8.0 0.00 0.00 0.00 59 1022.0
20260502211038 16 22 1.6 8.0 0.00 0.00 0.00 59 1022.1
20260502210535 16 349 1.6 8.0 0.00 0.00 0.00 58 1022.1
20260502210050 16 0 1.6 4.8 0.00 0.00 0.00 58 1022.1
20260502205535 16 9 0.0 6.4 0.00 0.00 0.00 59 1022.1
20260502205037 16 0 0.0 6.4 0.00 0.00 0.00 58 1022.0
20260502204548 16 342 1.6 6.4 0.00 0.00 0.00 57 1022.0
20260502204035 16 322 1.6 6.4 0.00 0.00 0.00 57 1022.1
20260502203533 16 360 1.6 12.9 0.00 0.00 0.00 57 1022.0
20260502203111 16 0 1.6 12.9 0.00 0.00 0.00 57 1021.9
20260502202535 16 346 3.2 12.9 0.00 0.00 0.00 57 1021.9
20260502202040 16 40 1.6 6.4 0.00 0.00 0.00 57 1022.0
20260502201548 16 347 1.6 8.0 0.00 0.00 0.00 56 1021.9
20260502201034 16 302 3.2 11.3 0.00 0.00 0.00 57 1021.9
20260502200535 16 0 1.6 11.3 0.00 0.00 0.00 56 1021.9
20260502200057 16 352 1.6 8.0 0.00 0.00 0.00 56 1021.8
20260502195534 16 355 1.6 9.7 0.00 0.00 0.00 57 1021.8
20260502195034 16 0 1.6 9.7 0.00 0.00 0.00 56 1021.7
20260502194551 16 351 1.6 8.0 0.00 0.00 0.00 57 1021.8
20260502194033 16 0 1.6 9.7 0.00 0.00 0.00 57 1021.8
20260502193536 16 17 1.6 9.7 0.00 0.00 0.00 57 1021.6
20260502193048 17 271 1.6 14.5 0.00 0.00 0.00 56 1021.6
20260502192535 17 302 1.6 14.5 0.00 0.00 0.00 55 1021.6
20260502192036 17 346 0.0 8.0 0.00 0.00 0.00 55 1021.6
20260502191549 17 355 1.6 8.0 0.00 0.00 0.00 55 1021.6
20260502191034 17 0 1.6 8.0 0.00 0.00 0.00 55 1021.5
20260502190539 17 336 1.6 11.3 0.00 0.00 0.00 55 1021.5
20260502190047 17 9 1.6 11.3 0.00 0.00 0.00 55 1021.5
20260502185534 17 0 1.6 8.0 0.00 0.00 0.00 55 1021.5
20260502185038 17 355 1.6 8.0 0.00 0.00 0.00 55 1021.4
20260502184546 17 0 1.6 11.3 0.00 0.00 0.00 54 1021.3
20260502184035 17 0 1.6 11.3 0.00 0.00 0.00 54 1021.4
20260502183534 17 355 1.6 8.0 0.00 0.00 0.00 54 1021.3
20260502183043 17 323 3.2 8.0 0.00 0.00 0.00 54 1021.3
20260502182534 17 40 1.6 8.0 0.00 0.00 0.00 54 1021.2
20260502182033 17 307 1.6 8.0 0.00 0.00 0.00 53 1021.0
20260502181551 18 347 1.6 4.8 0.00 0.00 0.00 54 1021.1
20260502181036 18 360 1.6 6.4 0.00 0.00 0.00 53 1021.0
20260502180534 18 0 1.6 8.0 0.00 0.00 0.00 53 1021.0
20260502164034 21 224 4.8 16.1 0.00 0.00 0.00 47 1020.8
20260502163534 21 250 8.0 16.1 0.00 0.00 0.00 47 1020.8
20260502163059 21 245 6.4 12.9 0.00 0.00 0.00 45 1020.9
20260502162536 21 259 6.4 14.5 0.00 0.00 0.00 46 1021.0
20260502162034 21 255 4.8 14.5 0.00 0.00 0.00 45 1021.0
20260502161618 21 260 4.8 14.5 0.00 0.00 0.00 43 1021.0
20260502161033 22 223 4.8 12.9 0.00 0.00 0.00 43 1020.9
20260502160535 22 273 6.4 16.1 0.00 0.00 0.00 44 1021.1
20260502152034 22 255 8.0 17.7 0.00 0.00 0.00 39 1021.4
20260502151546 22 194 8.0 22.5 0.00 0.00 0.00 40 1021.3
20260502151033 22 251 3.2 22.5 0.00 0.00 0.00 39 1021.4
20260502150535 22 263 6.4 20.9 0.00 0.00 0.00 40 1021.4
20260502130534 21 253 8.0 17.7 0.00 0.00 0.00 40 1023.1
20260502123535 21 277 6.4 16.1 0.00 0.00 0.00 41 1023.5
20260502123110 21 309 8.0 19.3 0.00 0.00 0.00 42 1023.6
20260502122537 21 263 8.0 19.3 0.00 0.00 0.00 43 1023.6
20260502122038 21 236 11.3 22.5 0.00 0.00 0.00 41 1023.7
20260502121552 21 261 11.3 22.5 0.00 0.00 0.00 41 1023.9
20260502121034 21 257 11.3 20.9 0.00 0.00 0.00 44 1023.9
20260502120533 21 242 9.7 19.3 0.00 0.00 0.00 40 1024.0
20260502120108 20 285 9.7 20.9 0.00 0.00 0.00 41 1023.9
20260502115535 20 273 9.7 20.9 0.00 0.00 0.00 43 1024.1
20260502115036 20 271 8.0 24.1 0.00 0.00 0.00 44 1024.1
20260502114548 20 266 12.9 24.1 0.00 0.00 0.00 43 1024.3
20260502114037 20 238 8.0 17.7 0.00 0.00 0.00 40 1024.2
20260502113535 20 240 9.7 20.9 0.00 0.00 0.00 43 1024.3
20260502113054 20 257 6.4 20.9 0.00 0.00 0.00 44 1024.3
20260502112533 20 280 8.0 17.7 0.00 0.00 0.00 43 1024.4
20260502112035 20 254 8.0 19.3 0.00 0.00 0.00 45 1024.5
20260502111545 20 261 8.0 19.3 0.00 0.00 0.00 46 1024.6
20260502111034 20 259 9.7 19.3 0.00 0.00 0.00 46 1024.7
20260502110534 19 250 11.3 19.3 0.00 0.00 0.00 47 1024.8
20260502110054 19 233 8.0 16.1 0.00 0.00 0.00 49 1024.8
20260502105534 19 260 8.0 19.3 0.00 0.00 0.00 50 1025.0
20260502105033 18 250 9.7 19.3 0.00 0.00 0.00 50 1025.0
20260502104552 19 240 9.7 16.1 0.00 0.00 0.00 51 1025.3
20260502104035 19 229 9.7 19.3 0.00 0.00 0.00 48 1025.2
20260502103535 18 284 8.0 19.3 0.00 0.00 0.00 53 1025.4
20260502103046 18 276 8.0 17.7 0.00 0.00 0.00 52 1025.5
20260502102535 18 257 6.4 20.9 0.00 0.00 0.00 54 1025.5
20260502102036 18 244 11.3 20.9 0.00 0.00 0.00 53 1025.6
20260502101547 18 255 9.7 19.3 0.00 0.00 0.00 54 1025.6
20260502101034 18 238 11.3 19.3 0.00 0.00 0.00 56 1025.7
20260502100534 18 264 8.0 19.3 0.00 0.00 0.00 54 1025.8
20260502091035 16 204 4.8 11.3 0.00 0.00 0.00 66 1026.3
20260502090534 16 218 4.8 11.3 0.00 0.00 0.00 64 1026.3
20260502071034 12 220 1.6 6.4 0.00 0.00 0.00 73 1027.1
20260502070534 12 236 3.2 6.4 0.00 0.00 0.00 73 1027.2
20260502070107 12 240 3.2 6.4 0.00 0.00 0.00 74 1027.3
20260502065534 12 250 3.2 4.8 0.00 0.00 0.00 75 1027.4
20260502065033 12 245 3.2 4.8 0.00 0.00 0.00 76 1027.5
20260502064553 11 231 1.6 3.2 0.00 0.00 0.00 76 1027.3
20260502064033 11 200 0.0 4.8 0.00 0.00 0.00 77 1027.2
20260502063535 11 200 0.0 4.8 0.00 0.00 0.00 78 1027.3
20260502063051 11 200 1.6 3.2 0.00 0.00 0.00 79 1027.3
20260502062533 11 250 0.0 3.2 0.00 0.00 0.00 78 1027.3
20260502062032 11 148 0.0 1.6 0.00 0.00 0.00 78 1027.4
20260502061547 11 148 0.0 4.8 0.00 0.00 0.00 78 1027.2
20260502061035 11 0 1.6 4.8 0.00 0.00 0.00 80 1027.3
20260502060534 11 83 0.0 3.2 0.00 0.00 0.00 80 1027.5
20260502060052 10 0 0.0 0.0 0.00 0.00 0.00 80 1027.3
20260502055535 10 0 0.0 0.0 0.00 0.00 0.00 80 1027.4
20260502055033 10 0 0.0 0.0 0.00 0.00 0.00 80 1027.5
20260502054548 10 0 0.0 0.0 0.00 0.00 0.00 80 1027.6
20260502054033 10 0 0.0 0.0 0.00 0.00 0.00 81 1027.5
20260502053533 10 0 0.0 0.0 0.00 0.00 0.00 81 1027.6
20260502053053 10 0 0.0 1.6 0.00 0.00 0.00 81 1027.6
20260502052535 10 0 0.0 3.2 0.00 0.00 0.00 82 1027.6
20260502052040 10 0 0.0 3.2 0.00 0.00 0.00 82 1027.6
20260502051600 9 0 0.0 3.2 0.00 0.00 0.00 82 1027.5
20260502051034 9 5 0.0 3.2 0.00 0.00 0.00 82 1027.4
20260502050534 9 5 1.6 3.2 0.00 0.00 0.00 82 1027.4
20260502050051 9 5 1.6 3.2 0.00 0.00 0.00 82 1027.6
20260502045534 9 5 0.0 3.2 0.00 0.00 0.00 81 1027.4
20260502045036 9 5 0.0 3.2 0.00 0.00 0.00 82 1027.4
20260502044545 9 0 0.0 3.2 0.00 0.00 0.00 82 1027.4
20260502044033 9 0 0.0 3.2 0.00 0.00 0.00 82 1027.4
20260502043533 9 5 1.6 3.2 0.00 0.00 0.00 82 1027.3
20260502043046 9 14 1.6 4.8 0.00 0.00 0.00 81 1027.1
20260502042534 9 44 1.6 4.8 0.00 0.00 0.00 81 1027.1
20260502042037 9 0 1.6 4.8 0.00 0.00 0.00 81 1027.1
20260502041546 9 360 1.6 4.8 0.00 0.00 0.00 81 1027.1
20260502041033 9 15 1.6 4.8 0.00 0.00 0.00 81 1027.1
20260502040533 9 29 1.6 4.8 0.00 0.00 0.00 81 1027.1
20260502035536 9 22 3.2 4.8 0.00 0.00 0.00 80 1027.0
20260502035036 9 5 1.6 4.8 0.00 0.00 0.00 80 1027.0
20260502034548 9 321 0.0 3.2 0.00 0.00 0.00 80 1027.0
20260502034034 9 348 0.0 4.8 0.00 0.00 0.00 80 1027.0
20260502033534 9 360 1.6 4.8 0.00 0.00 0.00 80 1026.9
20260502033051 9 348 1.6 4.8 0.00 0.00 0.00 80 1027.0
20260502032534 9 351 1.6 4.8 0.00 0.00 0.00 80 1027.0
20260502032034 9 355 1.6 4.8 0.00 0.00 0.00 80 1027.0
20260502031549 9 18 1.6 4.8 0.00 0.00 0.00 80 1027.0
20260502031036 9 22 1.6 4.8 0.00 0.00 0.00 80 1027.0
20260502030534 9 360 1.6 4.8 0.00 0.00 0.00 80 1027.0
20260502030051 9 22 1.6 4.8 0.00 0.00 0.00 80 1026.9
20260502025533 9 348 1.6 4.8 0.00 0.00 0.00 80 1027.0
20260502025035 9 335 1.6 4.8 0.00 0.00 0.00 79 1027.1
20260502024547 9 10 1.6 4.8 0.00 0.00 0.00 79 1027.0
20260502024036 10 360 1.6 4.8 0.00 0.00 0.00 79 1026.9
20260502023537 10 351 1.6 4.8 0.00 0.00 0.00 79 1027.0
20260502023048 10 360 1.6 4.8 0.00 0.00 0.00 79 1026.9
20260502022534 10 32 1.6 4.8 0.00 0.00 0.00 79 1026.9
20260502022035 10 11 1.6 4.8 0.00 0.00 0.00 78 1026.9